Regional Weather Roundup
Issued by NWS Binghamton, NY

Home | Current Version | Previous Version | Text Only | Print | Product List | Glossary On
Versions: 1 2 3 4 5 6 7 8 9 10 11 12 13 14 15 16 17 18 19 20 21 22 23 24 25 26 27 28 29 30 31 32 33 34 35 36 37 38 39 40 41 42 43 44 45 46 47 48 49 50
000
ASUS41 KBGM 301910
RWRBGM
RWRBGM
BINGHAMTON REGIONAL WEATHER ROUNDUP
NATIONAL WEATHER SERVICE BINGHAMTON NY
300 PM EDT TUE SEP 30 2014

Note: "fair" indicates few or no clouds below 12,000 feet with no
significant weather and/or obstructions to visibility.

* = Station(s) that does not report precipitation, such as rain,
snow, etc, also no thunder or fog.

!NYZ009-015>018-022>025-036-037-044>046-055>057-062-302000
...CENTRAL NEW YORK...

CITY           SKY/WX    TMP DP  RH WIND       PRES   REMARKS
BINGHAMTON     MOSUNNY   70  61  73 E15       29.91S
CORTLAND       FAIR      73  57  56 CALM      29.90F
DANSVILLE      SUNNY     76  55  48 NW9       29.86F
ELMIRA         PTSUNNY   76  57  51 SE5       29.86F
ITHACA         MOSUNNY   78  56  46 SW3       29.89F
HAMILTON       CLEAR     77  55  47 S6        29.90F
MONTICELLO     MOSUNNY   70  55  60 SE10      29.95F
NORWICH        SUNNY     73  57  56 S3        29.92S
ONEONTA        SUNNY     70  55  60 W6        29.94S
PENN YAN       MOSUNNY   75  56  51 E7        29.88F
ROME           PTSUNNY   73  62  68 E10       29.91F
SIDNEY         SUNNY     75  63  64 CALM      29.91S
SYRACUSE       PTSUNNY   77  62  59 NE9       29.87F
$$

!PAZ038>040-043-044-047-048-072-302000
...NORTHEAST PENNSYLVANIA...

CITY           SKY/WX    TMP DP  RH WIND       PRES   REMARKS
HAZLETON       MOSUNNY   70  57  64 E7        29.95F
SCRANTON       LGT RAIN  73  54  51 CALM      29.90S
$$
&&
KEY
WCI = WIND CHILL INDEX
VSB = VISIBILITY
HX  = HEAT INDEX
$$


USA.gov is the U.S. government's official web portal to all federal, state and local government web resources and services.